Regional Weather Roundup
Issued by NWS

Home | Current Version | Previous Version | Graphics & Text | Print | Product List | Glossary On
Versions: 1 2 3 4 5 6 7 8 9 10 11 12 13 14 15 16 17 18 19 20 21 22 23 24 25 26 27
000
ASUS45 KCYS 281610
RWRWY

WYOMING REGIONAL WEATHER ROUNDUP
NATIONAL WEATHER SERVICE CHEYENNE WY
900 AM MST TUE FEB 28 2017

NOTE:  "FAIR" INDICATES FEW OR NO CLOUDS BELOW 12,000 FEET
WITH NO SIGNIFICANT WEATHER AND/OR OBSTRUCTIONS TO VISIBILITY.

WYZ001-281700-
YELLOWSTONE NATIONAL PARK

CITY           SKY/WX    TMP DP  RH WIND       PRES   REMARKS
LK YELLOWSTONE   N/A     10   7  87 VRB3      29.63R
W YELLOWSTONE  NOT AVBL

$$
WYZ002>013-054>058-071-098>099-281700-
NORTHERN WYOMING

CITY           SKY/WX    TMP DP  RH WIND       PRES   REMARKS
JACKSON        LGT SNOW  16  14  93 SW10      29.71R WCI   3
CODY           FAIR      28   5  37 W8G21     29.65S WCI  20
GREYBULL       FAIR      24  19  81 SE3       29.72R
WORLAND        FAIR      23  10  57 S7        29.72R WCI  15
SHERIDAN       FAIR      29  12  49 SE14      29.66S WCI  18
BUFFALO        FAIR      23  10  57 CALM      29.65S
GILLETTE       FAIR      27  21  78 W13       29.67R WCI  16
HULETT         CLOUDY    23  19  86 CALM      29.69R
NEWCASTLE      CLOUDY    25  19  80 NW10      29.69S WCI  15

$$
WYZ014>020-022>026-101>103-281700-
CENTRAL WYOMING

CITY           SKY/WX    TMP DP  RH WIND       PRES   REMARKS
BIG PINEY      FAIR      -8 -12  83 E3        29.76R
PINEDALE       CLOUDY    -8 -13  77 CALM      29.77R
DUBOIS         FAIR      12   1  62 N14       29.63S WCI  -3
LANDER         FAIR      15  -4  42 CALM      29.70S
RIVERTON       FAIR      12  -2  53 SW9       29.72R WCI   0
CASPER         FAIR      17   5  59 SW15      29.72S WCI   2
DOUGLAS        FAIR      17   4  56 N9        29.71F WCI   6

$$
WYZ021-027>030-104>119-281700-
SOUTHERN WYOMING

CITY           SKY/WX    TMP DP  RH WIND       PRES   REMARKS
EVANSTON       LGT SNOW  11   7  84 SW10      29.78R FOG     WCI  -3
KEMMERER         N/A    N/A N/A N/A N5        29.76R
FORT BRIDGER   PTSUNNY   15   7  69 SW15      29.80R WCI   0
ROCK SPRINGS   FAIR       9   6  88 W7        29.77R WCI  -2
DIXON            N/A     19  12  75 CALM      29.81R
RAWLINS        FAIR      14   6  70 W15G21    29.72F WCI  -1
SARATOGA       CLOUDY    18   9  68 CALM      29.74R
LARAMIE        PTSUNNY   18   6  59 E3        29.66F
CHEYENNE       FAIR      24   7  48 NW13      29.65F WCI  12
TORRINGTON     FAIR      24   6  46 W8        29.72R WCI  15
PINE BLUFFS    CLOUDY    30   9  40 N8        29.72R WCI  23

$$




USA.gov is the U.S. government's official web portal to all federal, state and local government web resources and services.